Location: Godiavel Galaoual
(15.2485°N, 12.6604°W)
Time: 23:57:36
(UTC+00:00)

BEESAT - Pass Details

Date: 28 July 2021
Orbit: 699 x 708 km, 98.6° (Epoch: 24 September)

Event Time Altitude Azimuth Distance (km) Brightness Sun altitude
Rises 20:06:09 0° 8° (N) 3,095 ? -10.7°
Reaches altitude 10° 20:08:24 10° 7° (N) 2,176 ? -11.2°
Maximum altitude 20:13:09 72° 283° (WNW) 745 ? -12.3°
Drops below altitude 10° 20:17:54 10° 199° (SSW) 2,171 ? -13.3°
Sets 20:20:09 0° 197° (SSW) 3,088 ? -13.8°
